Content
SEND FEEDBACK

Daily
Averages
Monthly
Summary
Austria

INNSBRUCK, AUSTRIA


Home > Europe > Austria
Elevation: 1994 feet     Latitude: 47 15N     Longitude: 011 20E

WEATHER
 
SELECT A DAY
Number of Records: 311,557;   Date Range: 7/1/96 - 8/31/14
 
SHARE

PRINT THIS DATA

[ ← Previous Day ]
WEATHER ALMANAC - FEBRUARY 22, 2013
[ Next Day → ]
[ °C ]   °F
Weather ElementAverageHighLow
Temperature24.2 °F28.4 °F (12:50 pm)21 °F (7:00 am)
Dewpoint16.8 °F20 °F (4:00 am)14 °F (12:20 pm)
Humidity73 %88 % (4:00 am)44 % (4:00 pm)
Barometer29.71 in29.93 in (1:00 am)29.62 in (1:50 pm)
Wind Speed5.7 mph12.7 mph (2:50 pm)
Weather ElementAverage
Visibility5.4 mi
Wind DirectionENE (81.9 °)

Weather ElementTotal
Precipitation---
Heating Degree Days40.3 (Base 65)
Averaged from 55 records on February 22, 2013
WEATHER CONDITIONS BREAKOUT
WIND DIRECTION BREAKOUT
WEATHER BY HOUR - FEBRUARY 22, 2013
[ °C ]   °F
Local TimeTemperatureDewpointHumidityBarometerVisibilityWind DirectionWind SpeedGust SpeedPrecipitationEventsConditions
12:50 AM23.0 °F19.4 °F86 %29.80 inVariable2.3 mphSnowSnow
1:00 AM23.0 °F19.0 °F78 %29.93 in3.0 mi°2.2 mph
1:20 AM23.0 °F19.4 °F86 %29.80 in2.5 miVariable1.2 mphSnowLight Snow
1:50 AM23.0 °F19.4 °F86 %29.77 in3.1 miWSW (240°)2.3 mphSnowLight Snow
2:20 AM23.0 °F19.4 °F86 %29.77 inVariable1.2 mphSnowLight Snow
2:50 AM23.0 °F19.4 °F86 %29.77 inVariable1.2 mphSnowLight Snow
3:20 AM23.0 °F19.4 °F86 %29.77 inWest (270°)2.3 mphSnowSnow
3:50 AM23.0 °F19.4 °F86 %29.74 in3.1 miVariable1.2 mphSnowLight Snow
4:00 AM22.0 °F20.0 °F88 %29.88 in3.0 mi°2.2 mphSnowLight Snow
4:20 AM23.0 °F19.4 °F86 %29.74 in3.1 miVariable1.2 mphSnowLight Snow
4:50 AM23.0 °F19.4 °F86 %29.74 in3.7 miVariable3.5 mphSnowLight Snow
5:20 AM23.0 °F19.4 °F86 %29.74 in3.7 miENE (60°)4.6 mphSnowLight Snow
5:50 AM23.0 °F19.4 °F86 %29.74 in2.5 miSE (130°)2.3 mphSnowSnow
6:20 AM21.2 °F17.6 °F86 %29.74 in3.1 miSE (140°)4.6 mphSnowLight Snow
6:50 AM21.2 °F17.6 °F86 %29.71 in2.5 miESE (120°)3.5 mphSnowSnow
7:00 AM21.0 °F18.0 °F82 %29.86 in2.0 miESE (120°)4.5 mphSnowSnow
7:20 AM21.2 °F17.6 °F86 %29.74 in1.2 miSE (130°)3.5 mphSnowSnow
7:50 AM21.2 °F17.6 °F86 %29.74 in3.1 miSE (140°)4.6 mphSnowLight Snow
8:20 AM21.2 °F17.6 °F86 %29.74 in1.9 miSE (130°)5.8 mphSnowLight Snow
8:50 AM21.2 °F17.6 °F86 %29.71 in2.5 miSE (130°)5.8 mphSnowLight Snow
9:20 AM23.0 °F17.6 °F80 %29.71 in3.7 miSE (130°)5.8 mphSnowLight Snow
9:50 AM23.0 °F17.6 °F80 %29.71 in5.6 miEast (90°)6.9 mphScattered Clouds
10:00 AM23.0 °F17.0 °F69 %29.85 in6.0 miEast (90°)6.7 mphSnowLight Snow
10:20 AM24.8 °F17.6 °F74 %29.71 in6.2 miEast (90°)6.9 mphScattered Clouds
10:50 AM24.8 °F17.6 °F74 %29.71 in6.2 miENE (60°)3.5 mphScattered Clouds
11:20 AM26.6 °F15.8 °F64 %29.68 in6.2 miEast (100°)5.8 mphScattered Clouds
11:50 AM26.6 °F15.8 °F64 %29.68 in6.2 miEast (100°)8.1 mphScattered Clouds
12:20 PM26.6 °F14.0 °F59 %29.65 in6.2 miSE (130°)5.8 mphScattered Clouds
12:50 PM28.4 °F15.8 °F59 %29.65 in6.2 miESE (120°)4.6 mphScattered Clouds
1:00 PM28.0 °F15.0 °F45 %29.76 in16.0 miESE (120°)4.5 mphPartly Cloudy
1:20 PM28.4 °F14.0 °F55 %29.65 in6.2 miEast (100°)4.6 mphScattered Clouds
1:50 PM28.4 °F15.8 °F59 %29.62 in6.2 miENE (70°)8.1 mphScattered Clouds
2:20 PM28.4 °F14.0 °F55 %29.62 in6.2 miENE (70°)9.2 mphScattered Clouds
2:50 PM28.4 °F14.0 °F55 %29.62 in6.2 miENE (70°)12.7 mphMostly Cloudy
3:20 PM28.4 °F15.8 °F59 %29.62 in6.2 miENE (60°)12.7 mphMostly Cloudy
3:50 PM28.4 °F14.0 °F55 %29.62 in6.2 miEast (80°)10.4 mphMostly Cloudy
4:00 PM28.0 °F15.0 °F44 %29.73 in16.0 miEast (80°)11.2 mphScattered Clouds
4:20 PM26.6 °F15.8 °F64 %29.62 in6.2 miENE (60°)12.7 mphMostly Cloudy
4:50 PM26.6 °F15.8 °F64 %29.62 in6.2 miENE (60°)11.5 mphMostly Cloudy
5:20 PM26.6 °F15.8 °F64 %29.62 in6.2 miENE (70°)9.2 mphMostly Cloudy
5:50 PM24.8 °F15.8 °F69 %29.65 in6.2 miENE (60°)10.4 mphMostly Cloudy
6:20 PM24.8 °F15.8 °F69 %29.65 in6.2 miEast (90°)6.9 mphMostly Cloudy
6:50 PM24.8 °F15.8 °F69 %29.65 in6.2 miEast (90°)6.9 mphMostly Cloudy
7:00 PM25.0 °F16.0 °F57 %29.79 in9.0 miEast (90°)6.7 mphScattered Clouds
7:20 PM24.8 °F15.8 °F69 %29.68 in6.2 miEast (80°)5.8 mphMostly Cloudy
7:50 PM24.8 °F15.8 °F69 %29.68 in6.2 miEast (90°)6.9 mphMostly Cloudy
8:20 PM23.0 °F15.8 °F74 %29.68 in6.2 miEast (80°)9.2 mphMostly Cloudy
8:50 PM23.0 °F15.8 °F74 %29.68 in6.2 miEast (80°)6.9 mphSnowLight Snow Showers
9:20 PM23.0 °F15.8 °F74 %29.68 in6.2 miENE (60°)6.9 mphSnowLight Snow Showers
9:50 PM23.0 °F15.8 °F74 %29.68 in6.2 miNE (50°)5.8 mphSnowLight Snow
10:00 PM23.0 °F15.0 °F62 %29.82 in6.0 miNE (50°)6.7 mphSnowLight Snow
10:20 PM23.0 °F15.8 °F74 %29.68 in6.2 miNE (50°)6.9 mphSnowLight Snow
10:50 PM23.0 °F15.8 °F74 %29.68 in6.2 miENE (60°)4.6 mphSnowLight Snow
11:20 PM23.0 °F15.8 °F74 %29.68 in5.0 miNE (50°)3.5 mphSnowLight Snow
11:50 PM21.2 °F15.8 °F80 %29.68 in3.1 miVariable1.2 mphSnowLight Snow
Hourly data recorded from LOWI, located miles away from Innsbruck, Austria







STORIES FROM OUR PARTNERS